Location: St. Louis
(38.6270°N, 90.1994°W)
Time: 12:24:10
(UTC-06:00)

Altair - Pass Details

Date: 07 December 2021
Orbit: 1501 x 1683 km, 47.2° (Epoch: 25 January)

Event Time Altitude Azimuth Distance (km) Brightness Sun altitude
Rises 22:14:57 0° 296° (WNW) 4,650 10.4 -63.8°
Enters shadow 22:17:47 - 289° (WNW) 3,830 9.8 -64.3°
Reaches altitude 10° 22:18:25 10° 286° (WNW) 3,656 - -64.4°
Maximum altitude 22:25:59 30° 230° (SW) 2,427 - -65.6°
Drops below altitude 10° 22:33:36 10° 173° (S) 3,663 - -66.8°
Sets 22:37:07 0° 163° (SSE) 4,660 - -67.4°
